Date String (YYYY-MM-DD hh:mm:ss) UTC,Instrument flags,Ambient pressure (hPa),Sample flow (lpm),Bypass flow (lpm),Sample temperature (°C),Ambient temperature (°C),ASC tube jacket temperature (°C),LED temperature (°C),Box temperature (°C),Sample RH (%),Span deviation,Mass concentration (μg/m³),Mass concentration (μg/m³),Mass concentration (μg/m³)
DateTimeUTC,F1_M11,P_M11,Q1_M11,Q2_M11,T1_M11,T2_M11,T3_M11,T4_M11,T5_M11,U1_M11,ZSPAN_M11,X0_M11,X2_M11,X1_M11
2022-01-23 07:00:00,,0831.2,5.00,0.00,22.6,22.4,00.0,31.5,24.5,08.9,0000.0,0001.51,0001.25,0001.19
2022-01-23 07:01:00,,0831.1,4.99,0.00,22.6,22.3,00.0,31.5,24.4,08.8,0000.0,0001.53,0001.25,0001.19
2022-01-23 07:02:00,,0831.2,5.00,0.00,22.6,22.2,00.0,31.5,24.4,08.8,0000.0,0001.61,0001.28,0001.19
2022-01-23 07:03:00,,0831.2,5.00,0.00,22.6,22.1,00.0,31.6,24.3,09.0,0000.0,0001.65,0001.30,0001.21
2022-01-23 07:04:00,,0831.2,5.01,0.00,22.6,22.1,00.0,31.6,24.3,09.0,0000.0,0001.68,0001.34,0001.23
2022-01-23 07:05:00,,0831.2,4.98,0.00,22.6,22.0,00.0,31.6,24.3,09.2,0000.0,0001.75,0001.40,0001.28
2022-01-23 07:06:00,,0831.2,5.00,0.00,22.5,21.9,00.0,31.5,24.3,09.3,0000.0,0001.80,0001.45,0001.32
2022-01-23 07:07:00,,0831.1,5.01,0.00,22.5,21.9,00.0,31.5,24.2,09.3,0000.0,0001.86,0001.52,0001.39
2022-01-23 07:08:00,,0831.0,5.01,0.00,22.5,21.9,00.0,31.5,24.2,09.4,0000.0,0002.04,0001.59,0001.46
2022-01-23 07:09:00,,0831.0,4.99,0.00,22.5,21.8,00.0,31.5,24.2,09.5,0000.0,0002.21,0001.66,0001.52
2022-01-23 07:10:00,,0831.0,5.00,0.00,22.4,21.8,00.0,31.5,24.1,09.6,0000.0,0002.34,0001.77,0001.62
2022-01-23 07:11:00,,0831.0,4.98,0.00,22.4,21.7,00.0,31.5,24.1,09.7,0000.0,0002.45,0001.89,0001.73
2022-01-23 07:12:00,,0831.0,5.01,0.00,22.4,21.7,00.0,31.5,24.1,09.7,0000.0,0002.59,0002.01,0001.85
2022-01-23 07:13:00,,0831.1,4.99,0.00,22.4,21.7,00.0,31.5,24.1,09.8,0000.0,0002.67,0002.15,0002.00
2022-01-23 07:14:00,,0831.0,4.99,0.00,22.4,21.6,00.0,31.5,24.0,09.8,0000.0,0002.72,0002.26,0002.12
2022-01-23 07:15:00,,0831.0,5.01,0.00,22.3,21.6,00.0,31.4,24.0,09.7,0000.0,0002.75,0002.31,0002.18
2022-01-23 07:16:00,,0831.0,4.99,0.00,22.3,21.6,00.0,31.4,24.0,09.7,0000.0,0002.78,0002.34,0002.22
2022-01-23 07:17:00,,0831.0,5.00,0.00,22.3,21.5,00.0,31.4,24.0,09.7,0000.0,0002.86,0002.40,0002.27
2022-01-23 07:18:00,,0831.0,5.00,0.00,22.3,21.5,00.0,31.4,24.0,09.7,0000.0,0002.95,0002.47,0002.32
2022-01-23 07:19:00,,0831.0,4.98,0.00,22.3,21.8,00.0,31.4,24.0,09.6,0000.0,0002.98,0002.53,0002.37
2022-01-23 07:20:00,,0831.0,5.00,0.00,22.4,22.5,00.0,31.4,24.3,09.3,0000.0,0002.87,0002.54,0002.37
2022-01-23 07:21:00,,0831.0,5.01,0.00,22.5,23.1,00.0,31.5,24.5,09.3,0000.0,0002.83,0002.52,0002.35
2022-01-23 07:22:00,,0831.0,5.00,0.00,22.6,23.0,00.0,31.5,24.6,09.4,0000.0,0002.77,0002.50,0002.33
2022-01-23 07:23:00,,0831.0,4.99,0.00,22.6,22.8,00.0,31.5,24.5,09.5,0000.0,0002.74,0002.47,0002.30
2022-01-23 07:24:00,,0830.9,5.00,0.00,22.6,22.6,00.0,31.5,24.5,09.4,0000.0,0002.70,0002.41,0002.24
2022-01-23 07:25:00,,0830.9,4.99,0.00,22.6,22.4,00.0,31.5,24.4,09.4,0000.0,0002.71,0002.37,0002.18
2022-01-23 07:26:00,,0830.9,5.01,0.00,22.6,22.3,00.0,31.5,24.3,09.6,0000.0,0003.19,0002.40,0002.19
2022-01-23 07:27:00,,0830.9,4.99,0.00,22.6,22.2,00.0,31.5,24.3,09.6,0000.0,0004.13,0002.45,0002.21
2022-01-23 07:28:00,,0830.7,5.01,0.00,22.5,22.0,00.0,31.5,24.2,09.6,0000.0,0004.25,0002.50,0002.22
2022-01-23 07:29:00,,0830.7,4.98,0.00,22.5,22.0,00.0,31.5,24.2,09.6,0000.0,0004.23,0002.51,0002.23
2022-01-23 07:30:00,,0830.7,5.01,0.00,22.5,21.9,00.0,31.5,24.2,09.6,0000.0,0004.14,0002.49,0002.24
2022-01-23 07:31:00,,0830.7,4.99,0.00,22.4,21.8,00.0,31.5,24.1,09.6,0000.0,0004.19,0002.53,0002.27
2022-01-23 07:32:00,,0830.7,5.00,0.00,22.4,21.8,00.0,31.5,24.1,09.5,0000.0,0004.58,0002.56,0002.28
2022-01-23 07:33:00,,0830.7,5.01,0.00,22.4,21.7,00.0,31.5,24.0,09.4,0000.0,0004.63,0002.52,0002.24
2022-01-23 07:34:00,,0830.7,4.99,0.00,22.4,21.7,00.0,31.5,24.0,09.3,0000.0,0004.60,0002.47,0002.19
2022-01-23 07:35:00,,0830.6,5.01,0.00,22.3,21.6,00.0,31.5,24.0,09.2,0000.0,0004.48,0002.39,0002.14
2022-01-23 07:36:00,,0830.6,4.99,0.00,22.3,21.6,00.0,31.4,24.0,09.1,0000.0,0004.68,0002.32,0002.09
2022-01-23 07:37:00,,0830.6,4.99,0.00,22.3,21.5,00.0,31.4,24.0,09.0,0000.0,0004.54,0002.24,0002.01
2022-01-23 07:38:00,,0830.5,4.99,0.00,22.3,21.5,00.0,31.4,24.0,08.9,0000.0,0003.53,0002.12,0001.92
2022-01-23 07:39:00,,0830.5,5.01,0.00,22.2,21.5,00.0,31.4,23.9,08.8,0000.0,0003.37,0002.01,0001.83
2022-01-23 07:40:00,,0830.5,4.99,0.00,22.2,21.5,00.0,31.4,23.9,08.8,0000.0,0003.25,0001.91,0001.76
2022-01-23 07:41:00,,0830.5,5.00,0.00,22.2,21.5,00.0,31.4,23.9,08.8,0000.0,0003.21,0001.85,0001.70
2022-01-23 07:42:00,,0830.4,5.00,0.00,22.2,21.8,00.0,31.4,24.0,08.7,0000.0,0003.20,0001.80,0001.65
2022-01-23 07:43:00,,0830.7,5.00,0.00,22.4,22.5,00.0,31.4,24.2,08.6,0000.0,0003.63,0001.75,0001.59
2022-01-23 07:44:00,,0830.4,4.99,0.00,22.5,23.1,00.0,31.4,24.4,08.6,0000.0,0003.60,0001.76,0001.58
2022-01-23 07:45:00,,0830.4,5.00,0.00,22.6,22.9,00.0,31.4,24.5,08.6,0000.0,0003.68,0001.80,0001.60
2022-01-23 07:46:00,,0830.4,5.01,0.00,22.6,22.7,00.0,31.4,24.4,08.6,0000.0,0003.70,0001.84,0001.64
2022-01-23 07:47:00,,0830.3,5.01,0.00,22.5,22.5,00.0,31.4,24.3,08.6,0000.0,0003.52,0001.85,0001.66
2022-01-23 07:48:00,,0830.3,4.99,0.00,22.5,22.3,00.0,31.5,24.3,08.5,0000.0,0003.03,0001.85,0001.67
2022-01-23 07:49:00,,0830.3,5.00,0.00,22.5,22.1,00.0,31.5,24.2,08.4,0000.0,0003.01,0001.85,0001.69
2022-01-23 07:50:00,,0830.2,5.00,0.00,22.5,22.0,00.0,31.4,24.2,08.3,0000.0,0003.00,0001.84,0001.68
2022-01-23 07:51:00,,0830.2,5.01,0.00,22.4,21.9,00.0,31.4,24.1,08.3,0000.0,0003.01,0001.81,0001.64
2022-01-23 07:52:00,,0830.2,4.99,0.00,22.4,21.8,00.0,31.4,24.0,08.3,0000.0,0002.91,0001.72,0001.56
2022-01-23 07:53:00,,0830.1,4.99,0.00,22.4,21.7,00.0,31.4,24.0,08.3,0000.0,0002.84,0001.65,0001.49
2022-01-23 07:54:00,,0830.1,5.02,0.00,22.3,21.7,00.0,31.4,24.0,08.3,0000.0,0002.01,0001.59,0001.45
2022-01-23 07:55:00,,0830.2,4.98,0.00,22.3,21.6,00.0,31.4,24.0,08.2,0000.0,0001.75,0001.49,0001.40
2022-01-23 07:56:00,,0830.1,5.02,0.00,22.3,21.6,00.0,31.4,24.0,08.1,0000.0,0001.59,0001.39,0001.32
2022-01-23 07:57:00,,0830.1,5.00,0.00,22.3,21.5,00.0,31.4,24.0,08.1,0000.0,0001.49,0001.29,0001.22
2022-01-23 07:58:00,,0830.1,4.98,0.00,22.2,21.5,00.0,31.4,24.0,08.1,0000.0,0001.42,0001.20,0001.14
2022-01-23 07:59:00,,0830.1,5.01,0.00,22.2,21.5,00.0,31.3,23.9,08.0,0000.0,0001.36,0001.14,0001.08
